Regional Weather Roundup
Issued by NWS Cleveland, OH

Home | Current Version | Previous Version | Graphics & Text | Print | Product List | Glossary On
Versions: 1 2 3 4 5 6 7 8 9 10 11 12 13 14 15 16 17 18 19 20 21 22 23 24 25 26 27 28 29 30 31 32 33 34 35 36 37 38 39 40 41 42 43 44 45 46 47 48 49 50
564
ASUS41 KCLE 270012
RWRCLE
OHIO REGIONAL WEATHER ROUNDUP
NATIONAL WEATHER SERVICE WILMINGTON, OH
800 PM EDT WED JUL 26 2017

NOTE: "FAIR" INDICATES FEW OR NO CLOUDS BELOW 12,000 FEET WITH NO
SIGNIFICANT WEATHER AND/OR OBSTRUCTIONS TO VISIBILITY.

OHZ001>008-015>018-024>027-034-035-043-044-270100-
   NORTHWEST OHIO

CITY           SKY/WX    TMP DP  RH WIND       PRES   REMARKS
DEFIANCE       FAIR      77  65  66 CALM      30.03S
FINDLAY        FAIR      78  63  59 CALM      30.03F
TOLEDO EXPRESS FAIR      76  66  71 SE5       30.03F
TOLEDO EXEC    FAIR      79  65  62 CALM      30.05S
LIMA           FAIR      76  66  71 SE3       30.04F
$$

OHZ009>014-019>023-028>033-038-089-270100-
   NORTHEAST OHIO

CITY           SKY/WX    TMP DP  RH WIND       PRES   REMARKS
CLE-HOPKINS    MOCLDY    76  65  68 N10       30.09R
CLE-LAKEFRONT  FAIR      75  65  70 NE12      30.07R
CUY CO. ARPT   PTCLDY    75  64  69 NE8         N/A
LORAIN-ELYRIA  FAIR      74  62  66 NE9       30.07S
ASHTABULA      FAIR      71  63  75 N6        30.11R
AKRON-CANTON   MOCLDY    79  60  52 SW3       30.08S
WOOSTER        FAIR      74  68  81 CALM      30.08S
MANSFIELD      FAIR      77  64  64 CALM      30.08F
YOUNGSTOWN     CLOUDY    74  63  68 SE3       30.09S
$$

OHZ042-051>053-060>062-070>072-077>081-270100-
  SOUTHWEST OHIO

CITY           SKY/WX    TMP DP  RH WIND       PRES   REMARKS
CINC-COVINGTON CLOUDY    83  72  69 CALM      30.03F
CINC-LUNKEN    FAIR      81  72  74 CALM      30.02F
HAMILTON       FAIR      78  72  81 CALM      30.03F
DAYTON         CLOUDY    79  61  53 W3        30.06S
WRIGHT-PAT AFB MOCLDY    79  62  54 E5        30.04S
DAYTON GENERAL FAIR      81  63  54 CALM      30.04S
WILMINGTON     FAIR      76  68  76 SE3       30.05F
$$

OHZ036-037-039>041-045>050-054>059-063>069-073>076-082>088-270100-
  CENTRAL AND SOUTHEAST OHIO

CITY           SKY/WX    TMP DP  RH WIND       PRES   REMARKS
COLUMBUS       CLOUDY    78  60  53 S3        30.06R
OSU AIRPORT    FAIR      77  64  64 CALM      30.06S
BOLTON FIELD   FAIR      74  69  84 CALM      30.06F
RICKENBACK AFB FAIR      77  64  63 E3        30.05S
NEWARK         FAIR      77  65  66 CALM      30.06R
MARION         FAIR      77  62  59 SW6       30.07S
LANCASTER      FAIR      77  65  66 CALM      30.07R
ZANESVILLE     FAIR      78  65  63 CALM      30.07R
NEW PHILLY     FAIR      77  68  73 CALM      30.08R
$$




USA.gov is the U.S. government's official web portal to all federal, state and local government web resources and services.